When you browse on this site, cookies collect data to enhance your experience and personalize the content and advertising you see.
Visit our Privacy Policy to learn more. By continuing to use the site, you agree to this use of cookies and data.
  • In Österreich
  • Länderverzeichnis
  • Für 7 Tage
  • Wassertemperatur
  • Satellitenkarten
  • Wetterkarte
  • News
  • Widgets
  • user-avatar
    Anmelden

    Stündliche Wetter Towson

    Heute, 19 Juli, Freitag

    Zeit Temperatur Niederschläge Wind Luftdruck Luftfeuchtigkeit
    00:00 +28°C° 0 mm 1 m/S 749 mmHg 82%
    01:00 +27°C° 0 mm 2 m/S 750 mmHg 81%
    02:00 +27°C° 0 mm 2 m/S 750 mmHg 82%
    03:00 +27°C° 0 mm 2 m/S 749 mmHg 82%
    04:00 +26°C° 0 mm 2 m/S 749 mmHg 83%
    05:00 +27°C° 0 mm 2 m/S 750 mmHg 81%
    06:00 +27°C° 0 mm 1 m/S 750 mmHg 79%
    07:00 +28°C° 0 mm 1 m/S 751 mmHg 79%
    08:00 +30°C° 0 mm 1 m/S 751 mmHg 73%
    09:00 +32°C° 0 mm 1 m/S 751 mmHg 66%
    10:00 +33°C° 0 mm 1 m/S 750 mmHg 60%
    11:00 +35°C° 0 mm 2 m/S 750 mmHg 58%
    12:00 +36°C° 0 mm 2 m/S 750 mmHg 56%
    13:00 +36°C° 0 mm 2 m/S 750 mmHg 54%
    14:00 +36°C° 0 mm 2 m/S 749 mmHg 53%
    15:00 +37°C° 0 mm 2 m/S 749 mmHg 52%
    16:00 +37°C° 0 mm 2 m/S 748 mmHg 51%
    17:00 +36°C° 0 mm 2 m/S 749 mmHg 55%
    18:00 +35°C° 0 mm 2 m/S 749 mmHg 58%
    19:00 +34°C° 0 mm 2 m/S 749 mmHg 62%
    20:00 +32°C° 0 mm 2 m/S 749 mmHg 61%
    21:00 +31°C° 0 mm 3 m/S 749 mmHg 61%
    22:00 +31°C° 0 mm 3 m/S 750 mmHg 61%
    23:00 +30°C° 0 mm 2 m/S 750 mmHg 63%

    Morgen, 20 Juli, Samstag

    Zeit Temperatur Niederschläge Wind Luftdruck Luftfeuchtigkeit
    00:00 +30°C° 0 mm 2 m/S 749 mmHg 65%
    01:00 +29°C° 0 mm 2 m/S 749 mmHg 66%
    02:00 +29°C° 0 mm 2 m/S 749 mmHg 68%
    03:00 +29°C° 0 mm 2 m/S 749 mmHg 69%
    04:00 +29°C° 0 mm 2 m/S 749 mmHg 70%
    05:00 +29°C° 0 mm 2 m/S 749 mmHg 71%
    06:00 +30°C° 0 mm 2 m/S 750 mmHg 72%
    07:00 +30°C° 0 mm 2 m/S 750 mmHg 73%
    08:00 +31°C° 0 mm 2 m/S 750 mmHg 69%
    09:00 +34°C° 0 mm 2 m/S 750 mmHg 65%
    10:00 +35°C° 0 mm 3 m/S 750 mmHg 62%
    11:00 +36°C° 0.1 mm 3 m/S 750 mmHg 60%
    12:00 +36°C° 0.1 mm 3 m/S 750 mmHg 58%
    13:00 +37°C° 0.1 mm 2 m/S 750 mmHg 56%
    14:00 +37°C° 0 mm 3 m/S 749 mmHg 55%
    15:00 +37°C° 0 mm 3 m/S 749 mmHg 54%
    16:00 +38°C° 0 mm 3 m/S 748 mmHg 53%
    17:00 +37°C° 0 mm 2 m/S 748 mmHg 56%
    18:00 +36°C° 0 mm 2 m/S 748 mmHg 60%
    19:00 +34°C° 0 mm 1 m/S 748 mmHg 63%
    20:00 +33°C° 0 mm 1 m/S 749 mmHg 64%
    21:00 +32°C° 0 mm 1 m/S 749 mmHg 65%
    22:00 +32°C° 0 mm 1 m/S 749 mmHg 66%
    23:00 +31°C° 0 mm 1 m/S 749 mmHg 68%

    übermorgen, 21 Juli, Sonntag

    Zeit Temperatur Niederschläge Wind Luftdruck Luftfeuchtigkeit
    00:00 +31°C° 0 mm 1 m/S 749 mmHg 69%
    01:00 +30°C° 0 mm 1 m/S 749 mmHg 71%
    02:00 +30°C° 0 mm 2 m/S 749 mmHg 72%
    03:00 +30°C° 0 mm 2 m/S 749 mmHg 73%
    04:00 +29°C° 0 mm 2 m/S 749 mmHg 74%
    05:00 +30°C° 0 mm 2 m/S 749 mmHg 74%
    06:00 +30°C° 0 mm 2 m/S 749 mmHg 74%
    07:00 +31°C° 0 mm 2 m/S 749 mmHg 74%
    08:00 +32°C° 0.2 mm 2 m/S 749 mmHg 70%
    09:00 +34°C° 0.2 mm 2 m/S 749 mmHg 66%
    10:00 +36°C° 0.2 mm 3 m/S 749 mmHg 63%
    11:00 +36°C° 0.1 mm 3 m/S 749 mmHg 59%
    12:00 +37°C° 0.1 mm 3 m/S 749 mmHg 55%
    13:00 +38°C° 0.1 mm 3 m/S 749 mmHg 51%
    14:00 +38°C° 0.1 mm 3 m/S 748 mmHg 52%
    15:00 +38°C° 0.1 mm 3 m/S 748 mmHg 53%
    16:00 +38°C° 0.1 mm 3 m/S 748 mmHg 53%
    17:00 +37°C° 0 mm 2 m/S 748 mmHg 56%
    18:00 +36°C° 0 mm 2 m/S 748 mmHg 59%
    19:00 +34°C° 0 mm 1 m/S 748 mmHg 62%
    20:00 +32°C° 1.8 mm 2 m/S 748 mmHg 66%
    21:00 +30°C° 1.8 mm 3 m/S 748 mmHg 70%
    22:00 +28°C° 1.8 mm 3 m/S 749 mmHg 75%
    23:00 +28°C° 0.1 mm 3 m/S 749 mmHg 75%

    22 Juli, Montag

    Zeit Temperatur Niederschläge Wind Luftdruck Luftfeuchtigkeit
    00:00 +28°C° 0.1 mm 2 m/S 748 mmHg 74%
    01:00 +28°C° 0.1 mm 2 m/S 748 mmHg 74%
    02:00 +28°C° 0.2 mm 2 m/S 748 mmHg 75%
    03:00 +27°C° 0.2 mm 1 m/S 748 mmHg 76%
    04:00 +27°C° 0.2 mm 1 m/S 748 mmHg 76%
    05:00 +28°C° 0.1 mm 1 m/S 748 mmHg 76%
    06:00 +28°C° 0.1 mm 1 m/S 748 mmHg 75%
    07:00 +27°C° 0.1 mm 0 m/S 748 mmHg 75%
    08:00 +30°C° 0 mm 1 m/S 748 mmHg 70%
    09:00 +31°C° 0 mm 1 m/S 748 mmHg 65%
    10:00 +33°C° 0 mm 1 m/S 748 mmHg 60%
    11:00 +34°C° 0.2 mm 2 m/S 747 mmHg 58%
    12:00 +35°C° 0.2 mm 3 m/S 747 mmHg 56%
    13:00 +36°C° 0.2 mm 3 m/S 746 mmHg 53%
    14:00 +36°C° 1.1 mm 3 m/S 746 mmHg 54%
    15:00 +36°C° 1.1 mm 3 m/S 745 mmHg 55%
    16:00 +36°C° 1.1 mm 3 m/S 745 mmHg 56%
    17:00 +34°C° 0.5 mm 3 m/S 745 mmHg 61%
    18:00 +33°C° 0.5 mm 4 m/S 745 mmHg 67%
    19:00 +30°C° 0.5 mm 5 m/S 745 mmHg 72%
    20:00 +29°C° 1.8 mm 4 m/S 745 mmHg 75%
    21:00 +28°C° 1.8 mm 3 m/S 745 mmHg 79%
    22:00 +27°C° 1.8 mm 2 m/S 746 mmHg 82%
    23:00 +27°C° 0.1 mm 2 m/S 745 mmHg 82%

    23 Juli, Dienstag

    Zeit Temperatur Niederschläge Wind Luftdruck Luftfeuchtigkeit
    00:00 +26°C° 0.1 mm 3 m/S 745 mmHg 81%
    01:00 +26°C° 0.1 mm 3 m/S 745 mmHg 80%
    02:00 +26°C° 0.2 mm 3 m/S 744 mmHg 81%
    03:00 +26°C° 0.2 mm 3 m/S 744 mmHg 82%
    04:00 +26°C° 0.2 mm 3 m/S 744 mmHg 83%
    05:00 +26°C° 0.5 mm 4 m/S 745 mmHg 82%
    06:00 +26°C° 0.5 mm 4 m/S 745 mmHg 82%
    07:00 +26°C° 0.5 mm 5 m/S 746 mmHg 82%
    08:00 +23°C° 1 mm 5 m/S 746 mmHg 82%
    09:00 +22°C° 1 mm 5 m/S 747 mmHg 82%
    10:00 +21°C° 1 mm 4 m/S 747 mmHg 83%
    11:00 +23°C° 0 mm 4 m/S 748 mmHg 75%
    12:00 +25°C° 0 mm 4 m/S 748 mmHg 68%
    13:00 +27°C° 0 mm 3 m/S 748 mmHg 60%
    14:00 +27°C° 0.1 mm 3 m/S 749 mmHg 60%
    15:00 +27°C° 0.1 mm 3 m/S 749 mmHg 60%
    16:00 +27°C° 0.1 mm 2 m/S 749 mmHg 60%
    17:00 +27°C° 0 mm 2 m/S 749 mmHg 61%
    18:00 +26°C° 0 mm 2 m/S 749 mmHg 63%
    19:00 +25°C° 0 mm 1 m/S 750 mmHg 64%
    20:00 +25°C° 0 mm 1 m/S 750 mmHg 65%
    21:00 +24°C° 0 mm 2 m/S 751 mmHg 65%
    22:00 +24°C° 0 mm 2 m/S 751 mmHg 66%
    23:00 +23°C° 0 mm 2 m/S 751 mmHg 65%

    24 Juli, Mittwoch

    Zeit Temperatur Niederschläge Wind Luftdruck Luftfeuchtigkeit
    00:00 +21°C° 0 mm 3 m/S 751 mmHg 65%
    01:00 +21°C° 0 mm 3 m/S 751 mmHg 64%
    02:00 +20°C° 0 mm 3 m/S 751 mmHg 67%
    03:00 +20°C° 0 mm 3 m/S 751 mmHg 71%
    04:00 +19°C° 0 mm 3 m/S 752 mmHg 74%
    05:00 +20°C° 0 mm 3 m/S 752 mmHg 73%
    06:00 +20°C° 0 mm 3 m/S 752 mmHg 72%
    07:00 +20°C° 0 mm 4 m/S 753 mmHg 71%
    08:00 +22°C° 0 mm 3 m/S 753 mmHg 68%
    09:00 +24°C° 0 mm 3 m/S 753 mmHg 64%
    10:00 +25°C° 0 mm 3 m/S 753 mmHg 60%
    11:00 +26°C° 0 mm 3 m/S 753 mmHg 57%
    12:00 +27°C° 0 mm 3 m/S 753 mmHg 54%
    13:00 +28°C° 0 mm 3 m/S 753 mmHg 51%
    14:00 +27°C° 0 mm 3 m/S 753 mmHg 51%
    15:00 +27°C° 0 mm 2 m/S 753 mmHg 51%
    16:00 +27°C° 0 mm 2 m/S 753 mmHg 51%
    17:00 +26°C° 0 mm 2 m/S 753 mmHg 53%
    18:00 +25°C° 0 mm 2 m/S 753 mmHg 55%
    19:00 +24°C° 0 mm 2 m/S 753 mmHg 57%
    20:00 +23°C° 0 mm 2 m/S 753 mmHg 56%
    21:00 +23°C° 0 mm 1 m/S 754 mmHg 56%
    22:00 +22°C° 0 mm 1 m/S 754 mmHg 55%
    23:00 +22°C° 0 mm 1 m/S 754 mmHg 56%
    Mehr zeigen